DW6784 Goteborg SE current weather conditions

sailwx.info

Wind from 192 at 0 knots gusting 4

Air temperature 18.9° C
Dewpoint 15.2° C

Last reported at 2019-Jun-18 20:04 UTC.
Time now 2019-Jun-18 20:41 UTC

Location: N 57°42' E 012°29'.
View on Google Maps.

See reports from other nearby stations

  
Tides and Currents Weather Stations Pressure Air Temp Water Temp Dewpoint Dewpoint Depression Visibility Wind Speed Wind Dir Waves Ship Positions
date/time (UTC)wind fromknots sea level pressurealtimeterstation pressurevisibilityair tempwater tempwave heightnotes
2019-Jun-18 20:04 192 0 gusting 4 18.9
2019-Jun-18 19:49 229 1 gusting 2 18.9
2019-Jun-18 19:44 229 0 gusting 1 18.9
2019-Jun-18 19:34 229 18.9
2019-Jun-18 19:14 195 2 gusting 4 19.4
2019-Jun-18 19:04 265 0 gusting 2 19.4
2019-Jun-18 18:44 232 2 gusting 5 20.0
2019-Jun-18 18:39 202 0 gusting 2 20.0
2019-Jun-18 18:19 229 2 gusting 6 20.6
2019-Jun-18 18:09 253 2 gusting 5 20.6
2019-Jun-18 18:04 234 0 gusting 4 20.6
2019-Jun-18 17:49 244 1 gusting 5 21.1
2019-Jun-18 17:39 240 2 gusting 6 21.1
2019-Jun-18 17:14 209 1 gusting 6 21.1
2019-Jun-18 17:09 210 3 gusting 8 21.1
2019-Jun-18 17:04 209 6 gusting 10 21.7
2019-Jun-18 16:49 225 6 gusting 12 21.7
2019-Jun-18 16:44 228 5 gusting 10 21.7
2019-Jun-18 16:39 234 5 gusting 10 21.7
2019-Jun-18 16:34 230 5 gusting 12 21.7
2019-Jun-18 16:14 244 5 gusting 12 22.2
2019-Jun-18 16:04 222 6 gusting 12 22.2
2019-Jun-18 15:49 209 7 gusting 13 22.2
2019-Jun-18 15:44 212 6 gusting 13 22.2
2019-Jun-18 15:34 232 5 gusting 13 22.2
2019-Jun-18 15:19 227 6 gusting 10 22.8
2019-Jun-18 15:14 240 3 gusting 10 22.8
2019-Jun-18 15:09 219 6 gusting 13 22.8
2019-Jun-18 15:04 235 6 gusting 13 23.3
2019-Jun-18 14:49 209 5 gusting 13 23.3
2019-Jun-18 14:44 192 4 gusting 8 23.3
2019-Jun-18 14:39 238 7 gusting 13 23.3
2019-Jun-18 14:19 207 4 gusting 13 23.9
2019-Jun-18 14:09 215 5 gusting 13 23.9
2019-Jun-18 14:04 201 6 gusting 15 23.3
2019-Jun-18 13:49 207 6 gusting 15 23.9
2019-Jun-18 13:44 238 7 gusting 14 23.3
2019-Jun-18 13:34 225 6 gusting 13 23.9
2019-Jun-18 13:19 205 5 gusting 13 23.3
2019-Jun-18 13:14 238 6 gusting 13 23.3
2019-Jun-18 13:04 204 8 gusting 14 23.3
2019-Jun-18 12:49 241 6 gusting 10 23.9
2019-Jun-18 12:44 218 6 gusting 13 23.3
2019-Jun-18 12:39 221 8 gusting 15 23.3
2019-Jun-18 12:34 210 6 gusting 17 23.3
2019-Jun-18 12:19 235 7 gusting 13 23.9
2019-Jun-18 12:09 191 5 gusting 14 23.3
2019-Jun-18 12:04 207 8 gusting 18 23.9
2019-Jun-18 11:44 230 4 gusting 11 23.3
2019-Jun-18 11:19 187 6 gusting 17 21.7
2019-Jun-18 11:14 211 8 gusting 15 21.7
2019-Jun-18 11:09 234 8 gusting 18 21.7
2019-Jun-18 10:49 229 6 gusting 15 22.2
2019-Jun-18 10:34 217 5 gusting 17 22.8
2019-Jun-18 10:14 180 6 gusting 13 22.2
2019-Jun-18 10:09 218 9 gusting 18 22.2
2019-Jun-18 09:49 202 5 gusting 12 21.7
2019-Jun-18 09:44 226 5 gusting 12 21.7
2019-Jun-18 09:39 197 6 gusting 13 21.1
2019-Jun-18 09:34 209 7 gusting 14 21.1
2019-Jun-18 09:19 182 4 gusting 10 20.6
2019-Jun-18 09:09 191 4 gusting 7 20.0
2019-Jun-18 09:04 184 3 gusting 10 20.0
2019-Jun-18 08:44 209 5 gusting 8 20.0
2019-Jun-18 08:34 189 6 gusting 12 20.6
2019-Jun-18 08:14 170 5 gusting 13 20.0
2019-Jun-18 08:09 205 5 gusting 8 20.0
2019-Jun-18 08:04 184 4 gusting 15 20.0
2019-Jun-18 07:49 223 3 gusting 11 20.6
2019-Jun-18 07:34 181 7 gusting 13 20.0
2019-Jun-18 07:14 175 6 gusting 11 19.4
2019-Jun-18 07:09 201 4 gusting 10 18.9
2019-Jun-18 07:04 172 6 gusting 12 18.9
2019-Jun-18 06:49 207 4 gusting 8 18.3
2019-Jun-18 06:39 202 2 gusting 11 17.8
2019-Jun-18 06:34 181 2 gusting 10 17.2
2019-Jun-18 06:19 197 1 gusting 10 16.7
2019-Jun-18 06:14 182 4 gusting 8 16.7
2019-Jun-18 06:09 157 4 gusting 13 16.7
2019-Jun-18 06:04 208 5 gusting 8 16.7
2019-Jun-18 05:49 187 5 gusting 7 15.6
2019-Jun-18 05:34 194 2 gusting 7 14.4
2019-Jun-18 05:14 224 1 gusting 2 12.8
2019-Jun-18 05:09 227 1 gusting 2 12.8
2019-Jun-18 04:49 189 12.2
2019-Jun-18 04:44 169 12.2
2019-Jun-18 04:39 169 12.2
2019-Jun-18 04:34 169 12.2
2019-Jun-18 04:19 132 11.7
2019-Jun-18 04:14 132 11.1
2019-Jun-18 04:09 132 11.1
2019-Jun-18 03:44 228 9.4
2019-Jun-18 03:34 228 9.4
2019-Jun-18 03:04 228 8.9
2019-Jun-18 02:49 228 8.3
2019-Jun-18 02:44 228 7.8
2019-Jun-18 02:34 228 8.3
2019-Jun-18 02:14 228 8.3
2019-Jun-18 01:44 229 8.3
2019-Jun-18 01:39 229 8.3
2019-Jun-18 01:19 229 8.9
2019-Jun-18 01:09 229 8.9
2019-Jun-18 01:04 229 8.9
2019-Jun-18 00:44 229 9.4
2019-Jun-18 00:39 229 9.4
2019-Jun-18 00:34 229 9.4
2019-Jun-18 00:19 229 9.4
2019-Jun-18 00:14 229 9.4
2019-Jun-18 00:04 229 10.0
2019-Jun-17 23:44 229 10.0
2019-Jun-17 23:39 229 10.0
2019-Jun-17 23:34 229 10.0
2019-Jun-17 23:14 229 10.6
2019-Jun-17 23:09 229 10.6
2019-Jun-17 22:49 229 11.1
2019-Jun-17 22:44 229 11.1
2019-Jun-17 22:39 229 11.1
2019-Jun-17 22:19 229 11.7
2019-Jun-17 22:14 229 12.2
2019-Jun-17 22:09 229 12.2
2019-Jun-17 22:04 229 12.2
2019-Jun-17 21:49 229 12.2
2019-Jun-17 21:44 229 12.2
2019-Jun-17 21:39 229 12.2
2019-Jun-17 21:34 229 12.2
2019-Jun-17 21:19 229 12.2
2019-Jun-17 21:14 229 12.2
2019-Jun-17 21:09 229 12.2
2019-Jun-17 21:04 229 12.2
2019-Jun-17 20:49 229 12.2
2019-Jun-17 20:44 229 12.8
2019-Jun-17 20:34 229 12.8
2019-Jun-17 20:19 229 13.9
2019-Jun-17 20:14 229 13.9
2019-Jun-17 20:09 229 14.4
2019-Jun-17 20:04 229 15.0
2019-Jun-17 19:49 229 16.1
2019-Jun-17 19:44 229 0 gusting 1 16.1
2019-Jun-17 19:39 229 0 gusting 1 16.7
2019-Jun-17 19:19 250 2 gusting 6 17.2
2019-Jun-17 19:14 249 0 gusting 5 17.2
2019-Jun-17 19:09 238 2 gusting 5 17.2
2019-Jun-17 19:04 246 2 gusting 7 17.8
2019-Jun-17 18:44 229 4 gusting 8 17.8
2019-Jun-17 18:34 230 5 gusting 10 17.8
2019-Jun-16 22:44 344 9.4
2019-Jun-16 22:39 344 9.4
2019-Jun-16 22:34 344 9.4
2019-Jun-16 22:19 344 9.4
2019-Jun-16 22:09 061 10.0
2019-Jun-16 21:49 239 10.6
2019-Jun-16 21:39 239 10.6
2019-Jun-16 21:34 239 11.1
2019-Jun-16 21:19 239 0 gusting 1 11.7
2019-Jun-16 21:09 239 12.2
2019-Jun-16 21:04 239 12.2
2019-Jun-16 20:49 239 12.8
2019-Jun-16 20:44 239 12.8
2019-Jun-16 20:34 239 13.3
2019-Jun-16 20:19 239 14.4
2019-Jun-16 20:14 239 14.4
2019-Jun-16 20:09 239 15.0